Weather History for Jordan, MT

Change the Weather History Date:

Monday, January 21, 2013

  Actual Average Record
Temperature  
Mean Temperature 10 °F 18 °F  
Max Temperature 15 °F 29 °F 61 °F (1981)
Min Temperature 5 °F 6 °F -41 °F (1935)
Degree Days  
Heating Degree Days 55 47  
Month to date heating degree days 952 1014  
Since 1 July heating degree days 4051 4464  
Cooling Degree Days 0 0  
Month to date cooling degree days 0 0  
Year to date cooling degree days 0 0  
Moisture  
Dew Point 4 °F    
Average Humidity 79    
Maximum Humidity 88    
Minimum Humidity 69    
Precipitation  
Precipitation 0.01 in 0.00 in 0.20 in (1965)
Month to date precipitation 0.26 0.17  
Year to date precipitation 0.26 0.17  
Snow  
Snow 0.00 in - - ()
Month to date snowfall 0.0  
Since 1 July snowfall 0.0  
Snow Depth 0.00 in    
Sea Level Pressure  
Sea Level Pressure 30.36 in    
Wind  
Wind Speed 5 mph (ESE)    
Max Wind Speed 10 mph    
Max Gust Speed 13 mph    
T = Trace of Precipitation, MM = Missing Value Source: NWS Daily Summary

Daily Weather History Graph

Daily Weather History Graph

Search for Another Location

Airport:

Trip Planner

Search our weather history database for the weather conditions in past years. The results will help you decide how hot, cold, wet, or windy it might be!

Date:

Astronomy

Jan. 21, 2013 Rise Set
Actual Time 7:45 AM MST 4:53 PM MST
Civil Twilight 7:11 AM MST 5:27 PM MST
Nautical Twilight 6:33 AM MST 6:05 PM MST
Astronomical Twilight 5:57 AM MST 6:41 PM MST
Moon 12:33 PM MST (1/21) 3:17 AM MST (1/21)
Length of Visible Light 10h 16m
Length of Day
9h 08m
Waxing Gibbous, 75% of the Moon is Illuminated
Jan 21
Waxing Gibbous
Jan 26
Full
Feb 3
Last Quarter
Feb 10
New
Feb 17
First Quarter

Hourly Weather History & Observations

Time (MST) Temp. Windchill Dew Point Humidity Pressure Visibility Wind Dir Wind Speed Gust Speed Precip Events Conditions
12:48 AM 6.1 °F - -2.0 °F 69% 30.53 in - Calm Calm - N/A   Unknown
1:48 AM 6.1 °F - -2.0 °F 69% 30.52 in - Calm Calm - N/A   Unknown
2:48 AM 6.1 °F -0.9 °F -0.0 °F 76% 30.51 in - East 3.5 mph - N/A   Unknown
3:48 AM 5.0 °F - 1.0 °F 84% 30.50 in - Calm Calm - N/A   Unknown
4:48 AM 5.0 °F -4.1 °F -0.0 °F 80% 30.49 in - East 4.6 mph - N/A   Unknown
5:48 AM 5.0 °F -4.1 °F 1.0 °F 84% 30.49 in - East 4.6 mph - N/A   Unknown
6:48 AM 5.0 °F -4.1 °F 1.0 °F 84% 30.45 in - ESE 4.6 mph - 0.01 in   Unknown
7:48 AM 6.1 °F -0.9 °F 1.9 °F 83% 30.44 in - ESE 3.5 mph - N/A   Unknown
8:48 AM 7.0 °F -3.3 °F 3.0 °F 84% 30.44 in - East 5.8 mph - N/A   Unknown
9:48 AM 8.1 °F -3.2 °F 3.0 °F 80% 30.44 in - East 6.9 mph - N/A   Unknown
10:48 AM 9.0 °F -0.9 °F 3.9 °F 80% 30.42 in - ESE 5.8 mph - N/A   Unknown
11:48 AM 10.9 °F -0.8 °F 5.0 °F 77% 30.39 in - SSE 8.1 mph - N/A   Unknown
12:48 PM 12.0 °F 0.5 °F 5.0 °F 73% 30.34 in - SE 8.1 mph - N/A   Unknown
1:48 PM 14.0 °F 5.1 °F 7.0 °F 74% 30.31 in - SE 5.8 mph - N/A   Unknown
2:48 PM 15.1 °F 6.4 °F 8.1 °F 74% 30.30 in - ESE 5.8 mph - N/A   Unknown
3:48 PM 14.0 °F 3.9 °F 7.0 °F 74% 30.28 in - ESE 6.9 mph - N/A   Unknown
4:48 PM 14.0 °F 2.9 °F 8.1 °F 77% 30.26 in - East 8.1 mph - N/A   Unknown
5:48 PM 12.9 °F 1.6 °F 7.0 °F 77% 30.26 in - ESE 8.1 mph - N/A   Unknown
6:48 PM 12.0 °F 1.5 °F 7.0 °F 80% 30.25 in - ESE 6.9 mph - N/A   Unknown
7:48 PM 12.0 °F 0.5 °F 7.0 °F 80% 30.24 in - ESE 8.1 mph - N/A   Unknown
8:48 PM 12.9 °F 1.6 °F 7.0 °F 77% 30.24 in - East 8.1 mph - N/A   Unknown
9:48 PM 12.0 °F 2.7 °F 7.0 °F 80% 30.22 in - SE 5.8 mph - N/A   Unknown
10:48 PM 12.9 °F 3.8 °F 8.1 °F 81% 30.22 in - East 5.8 mph - N/A   Unknown
11:48 PM 12.0 °F 4.1 °F 8.1 °F 84% 30.20 in - ESE 4.6 mph - N/A   Unknown